PROBA-1 1 26958U 01049B 26145.16948461 .00002272 00000+0 14981-3 0 9999 2 26958 97.9602 152.9002 0054460 199.4769 160.4378 15.07390358340151 CUTE-1 (CO-55) 1 27844U 03031E 26144.99570644 .00000230 00000+0 11839-3 0 9992 2 27844 98.6739 153.8464 0008353 250.3425 109.6853 14.24319183188375 CUBESAT XI-IV (CO-57) 1 27848U 03031J 26144.97255007 .00000197 00000+0 10563-3 0 9992 2 27848 98.6769 153.5547 0008197 271.8870 88.1369 14.23606459188073 APRIZESAT 4 1 35684U 09041D 26145.19519586 .00000664 00000+0 85733-4 0 9997 2 35684 98.1414 220.0578 0044079 37.7522 322.6770 14.83841332907953 APRIZESAT 3 1 35686U 09041F 26145.16017667 .00001901 00000+0 16813-3 0 9996 2 35686 98.2035 297.2866 0062710 142.3089 218.2549 14.96150176912935 PROBA-2 1 36037U 09059B 26145.06304273 .00000142 00000+0 43528-4 0 9997 2 36037 98.2450 328.7370 0013130 358.1363 1.9783 14.54850827878168 APRIZESAT 5 1 37792U 11044E 26144.76650955 .00000801 00000+0 10829-3 0 9999 2 37792 98.2450 77.1453 0053659 78.4225 282.3004 14.81015560795327 APRIZESAT 6 1 37793U 11044F 26145.19747676 .00000557 00000+0 85891-4 0 9995 2 37793 98.2378 55.2266 0043567 157.8312 359.1148 14.76877777793759 PROBA-V 1 39159U 13021A 26145.20627948 .00000072 00000+0 49813-4 0 9997 2 39159 98.3574 124.9494 0003904 182.9134 177.2023 14.23591514677841 APRIZESAT 7 1 39416U 13066A 26145.14331029 .00001132 00000+0 11761-3 0 9995 2 39416 97.7696 98.6973 0034349 288.7157 71.0335 14.91503708677795 APRIZESAT 8 1 39425U 13066K 26145.13778271 .00000958 00000+0 10959-3 0 9991 2 39425 97.8210 92.9300 0046110 3.7587 356.3966 14.87594708676243 BUGSAT-1 (TITA) 1 40014U 14033E 26145.19038536 .00005302 00000+0 28309-3 0 9997 2 40014 98.0414 236.3999 0026902 258.6548 101.1660 15.15301772652353 SAUDISAT 4 1 40016U 14033G 26145.12444737 .00000625 00000+0 88979-4 0 9999 2 40016 97.7554 292.0615 0045658 146.9434 213.4647 14.79504334642665 APRIZESAT 9 1 40018U 14033J 26144.92652576 .00000426 00000+0 70348-4 0 9990 2 40018 97.9029 278.6978 0064743 275.1804 84.2018 14.74180812640132 APRIZESAT 10 1 40019U 14033K 26144.92926639 .00000306 00000+0 56018-4 0 9990 2 40019 97.9619 272.4118 0078489 349.0660 10.8837 14.70859550638835 TECHDEMOSAT-1 (TDS-1) 1 40076U 14037H 26144.94676020 .00007332 00000+0 42091-3 0 9996 2 40076 98.3814 134.8649 0006094 4.9095 355.2192 15.12872787644710 TECHNOSAT 1 42829U 17042E 26145.17642249 .00003228 00000+0 23215-3 0 9992 2 42829 97.4268 303.7165 0018148 167.8642 192.3026 15.04796520483247 FLYING LAPTOP 1 42831U 17042G 26145.18735801 .00002897 00000+0 23088-3 0 9992 2 42831 97.4591 301.6224 0018245 198.6078 161.4482 15.00971061483003 HAWK-A 1 43765U 18099H 26145.11246318 .00006020 00000+0 24500-3 0 9997 2 43765 97.3932 197.6526 0035040 9.7773 350.4139 15.24313969409585 HAWK-B 1 43794U 18099AN 26145.10663813 .00005725 00000+0 24643-3 0 9990 2 43794 97.3981 197.1098 0032774 27.6289 332.6680 15.22516431409526 HAWK-C 1 43799U 18099AT 26145.14079904 .00007845 00000+0 28548-3 0 9994 2 43799 97.3907 198.4803 0040756 9.6582 350.5432 15.27711845410394 SALSAT 1 46495U 20068K 26144.98774177 .00007014 00000+0 24856-3 0 9990 2 46495 97.8855 146.6473 0010594 33.8053 326.3859 15.29404891311817 HAWK-2C 1 47502U 21006CT 26145.06805289 .00005769 00000+0 17579-3 0 9991 2 47502 97.2298 189.8425 0004984 285.6616 74.4077 15.34341960295958 HAWK-2A 1 47505U 21006CW 26145.13598961 .00006109 00000+0 18593-3 0 9994 2 47505 97.2339 190.5734 0004571 291.8529 68.2228 15.34357011295967 HAWK-2B 1 47508U 21006CZ 26145.06733229 .00006665 00000+0 20231-3 0 9996 2 47508 97.2209 188.8754 0005003 288.4610 71.6089 15.34402635295957 HAWK-3B 1 48931U 21059BE 26145.10280756 .00037071 00000+0 34250-3 0 9993 2 48931 97.6686 339.6632 0005305 65.1445 295.0366 15.67474020274234 HAWK-3C 1 48948U 21059BX 26145.10252162 .00039903 00000+0 36850-3 0 9995 2 48948 97.6812 345.3082 0005844 65.2539 294.9329 15.67466887274238 HAWK-3A 1 48957U 21059CG 26145.10237568 .00037731 00000+0 34856-3 0 9999 2 48957 97.6754 342.5324 0005631 66.0434 294.1415 15.67470607274231 HAWK-5C 1 52754U 22057Y 26144.94631428 .00016793 00000+0 29644-3 0 9996 2 52754 97.6568 303.1378 0005428 149.4534 210.7034 15.50440280222743 HAWK-5B 1 52756U 22057AA 26144.94616316 .00016771 00000+0 29605-3 0 9990 2 52756 97.6578 301.4840 0005870 143.9568 216.2079 15.50438792222743 HAWK-5A 1 52757U 22057AB 26144.94593750 .00017008 00000+0 30016-3 0 9999 2 52757 97.6574 302.3163 0005957 147.2075 212.9546 15.50440218222742 HAWK-6B 1 55324U 23011A 26145.22976509 .00004255 00000+0 18691-3 0 9997 2 55324 40.4976 125.9512 0004529 244.0665 115.9678 15.22696894184342 HAWK-6C 1 55326U 23011C 26145.22912951 .00003563 00000+0 15791-3 0 9999 2 55326 40.4973 122.7968 0004519 235.7924 124.2457 15.22687402184359 HAWK-6A 1 55327U 23011D 26145.22915617 .00004393 00000+0 19269-3 0 9998 2 55327 40.4985 124.4191 0004302 235.7086 124.3316 15.22695743184351 HAWK-7A 1 56191U 23054P 26145.11273329 .00001383 00000+0 54731-4 0 9990 2 56191 97.2731 33.0370 0004856 106.3957 253.7816 15.27075340173505 HAWK-7B 1 56193U 23054R 26145.11267123 .00005066 00000+0 19341-3 0 9996 2 56193 97.2760 31.2927 0003816 111.1162 249.0486 15.27077782173507 HAWK-7C 1 56200U 23054Y 26145.11254336 .00004950 00000+0 18905-3 0 9993 2 56200 97.2737 32.0686 0004119 104.4565 255.7132 15.27077189173503